Weather History for Mosinee, WI

Change the Weather History Date:

Thursday, December 6, 2012

  Actual Average Record
Temperature  
Mean Temperature 36 °F -  
Max Temperature 42 °F 31 °F 46 °F (1998)
Min Temperature 30 °F 17 °F -9 °F (2000)
Degree Days  
Heating Degree Days 29    
Moisture  
Dew Point 30 °F    
Average Humidity 88    
Maximum Humidity 100    
Minimum Humidity 70    
Precipitation  
Precipitation 0.00 in - - ()
Sea Level Pressure  
Sea Level Pressure 29.92 in    
Wind  
Wind Speed 11 mph (SSW)    
Max Wind Speed 17 mph    
Max Gust Speed 24 mph    
Visibility 10 miles    
Events      
Averages and records for this station are not official NWS values.
T = Trace of Precipitation, MM = Missing Value Source: NWS Daily Summary

Daily Weather History Graph

Daily Weather History Graph

Search for Another Location

Airport:

Trip Planner

Search our weather history database for the weather conditions in past years. The results will help you decide how hot, cold, wet, or windy it might be!

Date:

Astronomy

Dec. 06, 2012 Rise Set
Actual Time 7:21 AM CST 4:17 PM CST
Civil Twilight 6:48 AM CST 4:51 PM CST
Nautical Twilight 6:11 AM CST 5:28 PM CST
Astronomical Twilight 5:36 AM CST 6:03 PM CST
Moon No Moon Rise 11:59 AM CST (12/6)
Length of Visible Light 10h 02m
Length of Day
8h 56m
Waning Gibbous, 49% of the Moon is Illuminated
Dec 6
Waning Gibbous
Dec 13
New
Dec 19
First Quarter
Dec 28
Full
Jan 4
Last Quarter

Hourly Weather History & Observations

Time (CST) Temp. Windchill Dew Point Humidity Pressure Visibility Wind Dir Wind Speed Gust Speed Precip Events Conditions
12:15 AM 30.2 °F 20.8 °F 26.6 °F 86% 30.09 in 10.0 mi SSE 11.5 mph - N/A   Overcast
12:35 AM 30.2 °F 20.8 °F 26.6 °F 86% 30.09 in 10.0 mi SSE 11.5 mph - N/A   Overcast
12:55 AM 32.0 °F 22.1 °F 26.6 °F 80% 30.09 in 10.0 mi SSE 13.8 mph 18.4 mph N/A   Overcast
1:15 AM 30.2 °F 19.3 °F 26.6 °F 86% 30.07 in 10.0 mi SSE 15.0 mph - N/A   Overcast
1:35 AM 30.2 °F 20.8 °F 28.4 °F 93% 30.05 in 10.0 mi SE 11.5 mph 18.4 mph N/A   Overcast
1:55 AM 30.2 °F 20.2 °F 28.4 °F 93% 30.04 in 10.0 mi SE 12.7 mph 18.4 mph N/A   Overcast
2:15 AM 30.2 °F 20.2 °F 28.4 °F 93% 30.03 in 10.0 mi SE 12.7 mph 17.3 mph N/A   Overcast
2:35 AM 30.2 °F 20.2 °F 28.4 °F 93% 30.02 in 10.0 mi SE 12.7 mph 17.3 mph N/A   Overcast
2:55 AM 32.0 °F 24.2 °F 28.4 °F 87% 30.01 in 10.0 mi SSE 9.2 mph 16.1 mph N/A   Overcast
3:15 AM 32.0 °F 22.1 °F 28.4 °F 87% 29.99 in 10.0 mi SE 13.8 mph - N/A   Overcast
3:35 AM 32.0 °F 23.0 °F 28.4 °F 87% 29.98 in 10.0 mi SSE 11.5 mph 17.3 mph N/A   Overcast
3:55 AM 32.0 °F 23.0 °F 28.4 °F 87% 29.96 in 10.0 mi SSE 11.5 mph 19.6 mph N/A   Mostly Cloudy
4:15 AM 32.0 °F 24.2 °F 28.4 °F 87% 29.95 in 10.0 mi SSE 9.2 mph - N/A   Overcast
4:35 AM 32.0 °F 25.6 °F 28.4 °F 87% 29.97 in 10.0 mi SSW 6.9 mph - N/A   Overcast
5:45 AM 33.8 °F 25.8 °F 28.4 °F 81% 29.95 in 10.0 mi South 10.4 mph 18.4 mph N/A   Overcast
6:50 AM 33.8 °F 25.8 °F 28.4 °F 81% 29.92 in 10.0 mi South 10.4 mph - N/A   Overcast
8:50 AM 35.6 °F 28.0 °F 30.2 °F 81% 29.91 in 10.0 mi South 10.4 mph - N/A   Overcast
9:50 AM 35.6 °F 27.1 °F 30.2 °F 81% 29.89 in 10.0 mi South 12.7 mph - N/A   Overcast
10:45 AM 35.6 °F 30.7 °F 32.0 °F 87% 29.82 in 10.0 mi SSE 5.8 mph - N/A   Overcast
11:45 AM 39.2 °F 32.5 °F 33.8 °F 81% 29.83 in 10.0 mi SSW 10.4 mph 17.3 mph N/A   Overcast
11:50 AM 39.2 °F 32.5 °F 33.8 °F 81% 29.83 in 10.0 mi SSW 10.4 mph 17.3 mph N/A   Overcast
12:55 PM 39.2 °F 31.6 °F 33.8 °F 81% 29.80 in 10.0 mi SSW 12.7 mph 17.3 mph N/A   Overcast
1:55 PM 42.8 °F 36.6 °F 33.8 °F 70% 29.78 in 10.0 mi SSW 11.5 mph - N/A   Overcast
2:50 PM 42.8 °F 37.0 °F 35.6 °F 76% 29.78 in 10.0 mi SW 10.4 mph - N/A   Scattered Clouds
3:45 PM 41.0 °F 35.8 °F 35.6 °F 81% 29.79 in 10.0 mi WSW 8.1 mph - N/A   Mostly Cloudy
4:45 PM 39.2 °F 34.2 °F 37.4 °F 93% 29.80 in 10.0 mi WSW 6.9 mph - N/A   Overcast
5:45 PM 39.2 °F 33.6 °F 37.4 °F 93% 29.82 in 10.0 mi WSW 8.1 mph - N/A   Overcast
6:50 PM 39.2 °F 30.2 °F 35.6 °F 87% 29.84 in 10.0 mi WNW 17.3 mph 24.2 mph N/A   Overcast
8:50 PM 30.2 °F 24.3 °F 28.4 °F 93% 29.88 in 10.0 mi WSW 5.8 mph - N/A   Clear
9:15 PM 30.2 °F 25.4 °F 28.4 °F 93% 29.88 in 10.0 mi SW 4.6 mph - N/A   Clear
9:35 PM 32.0 °F 25.6 °F 30.2 °F 93% 29.89 in 10.0 mi West 6.9 mph - N/A   Clear
9:45 PM 30.2 °F 24.3 °F 28.4 °F 93% 29.89 in 10.0 mi West 5.8 mph - N/A   Scattered Clouds
9:55 PM 30.2 °F 24.3 °F 30.2 °F 100% 29.89 in 10.0 mi West 5.8 mph - N/A   Scattered Clouds
10:15 PM 32.0 °F 27.5 °F 30.2 °F 93% 29.89 in 10.0 mi West 4.6 mph - N/A   Mostly Cloudy
10:35 PM 32.0 °F 27.5 °F 30.2 °F 93% 29.88 in 10.0 mi West 4.6 mph - N/A   Scattered Clouds
10:55 PM 32.0 °F 26.4 °F 30.2 °F 93% 29.88 in 10.0 mi WNW 5.8 mph - N/A   Clear
11:15 PM 32.0 °F 25.6 °F 30.2 °F 93% 29.88 in 10.0 mi WNW 6.9 mph - N/A   Clear
11:35 PM 32.0 °F 24.8 °F 30.2 °F 93% 29.89 in 10.0 mi WNW 8.1 mph - N/A   Clear
11:55 PM 32.0 °F 25.6 °F 30.2 °F 93% 29.89 in 10.0 mi WNW 6.9 mph - N/A   Clear